Regional Weather Roundup
Issued by NWS Albany, NY

Home | Current Version | Previous Version | Graphics & Text | Print | Product List | Glossary On
Versions: 1 2 3 4 5 6 7 8 9 10 11 12 13 14 15 16 17 18 19 20 21 22 23 24 25 26 27 28 29 30 31 32 33 34 35 36 37 38 39 40 41 42 43 44 45 46 47 48 49 50
000
ASUS41 KALY 261210
RWRALY

NEW YORK STATE HOURLY WEATHER ROUNDUP
NATIONAL WEATHER SERVICE ALBANY NY
800 AM EDT TUE MAY 26 2015

NOTE: "FAIR" INDICATES FEW OR NO CLOUDS BELOW 12,000 FEET WITH NO
SIGNIFICANT WEATHER AND/OR NO OBSTRUCTIONS TO VISIBILITY.

NYZ032-033-038>043-046>054-057>066-NYZ062>081-261300-
EAST


CITY           SKY/WX    TMP DP  RH WIND       PRES   REMARKS
ALBANY         CLOUDY    72  59  63 S8        30.13R
GLENS FALLS    NOT AVBL
POUGHKEEPSIE   SUNNY     72  59  63 SW8       30.17S
NEWBURGH       MOSUNNY   70  61  73 SW12      30.20
MONTGOMERY       N/A     70  60  70 MISG      30.19R
WHITE PLAINS   MOSUNNY   69  57  65 VRB3      30.22R
ISLIP          MOSUNNY   65  58  78 SW12      30.23S
NEW YORK CITY  MOSUNNY   70  57  63 SW8G17    30.22R
CENTRAL PARK   SUNNY     68  57  68 VRB3      30.25R
$$

NYZ005>009-017-018-044>046-055-056-261300-
CENTRAL


CITY           SKY/WX    TMP DP  RH WIND       PRES   REMARKS
FULTON         PTSUNNY   74  64  71 W10       30.11R
SYRACUSE       CLOUDY    74  62  66 W14       30.11R
ROME           PTSUNNY   71  61  70 CALM      30.11S
ELMIRA         CLOUDY    73  64  73 CALM      30.17R
BINGHAMTON     CLOUDY    69  60  73 SW8       30.19R
MONTICELLO     CLOUDY    64  59  82 CALM      30.23R
$$

NYZ026>034-041>043-261300-
NORTH


CITY           SKY/WX    TMP DP  RH WIND       PRES   REMARKS
WATERTOWN      MOSUNNY   68  61  78 SW13G18   30.10R
FORT DRUM      NOT AVBL
MASSENA        PTSUNNY   70  64  81 SW14      30.02R
SARANAC LAKE   CLOUDY    65  63  93 SW8       30.08S
PLATTSBURGH    PTSUNNY   72  63  73 S10G16    30.00F
$$

NYZ001>004-010>016-019>021-261300-
WEST


CITY           SKY/WX    TMP DP  RH WIND       PRES   REMARKS
NIAGARA FALLS  CLOUDY    69  60  73 SW14      30.10R
BUFFALO        PTSUNNY   68  59  73 SW8       30.12R
DUNKIRK        MOSUNNY   72  63  73 SW9       30.13R
JAMESTOWN      CLOUDY    66  59  77 S3        30.19R
WELLSVILLE     CLOUDY    68  60  75 SW9       30.23R
ROCHESTER      PTSUNNY   74  64  71 W10       30.11R
PENN YAN       PTSUNNY   73  61  65 S8        30.15R
$$

             KEY
       WCI = WIND CHILL INDEX
       VSB = VISIBILITY
       HX  = HEAT INDEX
$$



USA.gov is the U.S. government's official web portal to all federal, state and local government web resources and services.